Devils Lake, ND

9:31 PM CDT on May 27, 2018 (GMT -0500)
Devils Lake Municipal

Weather History for KDVL - November, 2012

Change the Weather History Date:

Tuesday, November 6, 2012

  Actual Average Record
Temperature  
Mean Temperature 37 °F -  
Max Temperature 42 °F 37 °F 68 °F (1949)
Min Temperature 32 °F 21 °F -8 °F (1991)
Degree Days  
Heating Degree Days 28    
Moisture  
Dew Point 30 °F    
Average Humidity 73    
Maximum Humidity 81    
Minimum Humidity 65    
Precipitation  
Precipitation 0.00 in - - ()
Sea Level Pressure  
Sea Level Pressure 29.90 in    
Wind  
Wind Speed 20 mph (WNW)    
Max Wind Speed 25 mph    
Max Gust Speed 32 mph    
Visibility 10 miles    
Events      
Averages and records for this station are not official NWS values.
T = Trace of Precipitation, MM = Missing Value Source: NWS Daily Summary

Daily Weather History Graph

Daily Weather History Graph

Search for Another Location

Airport or City:

Astronomy

Nov. 06, 2012 Rise Set
Actual Time 7:29 AM CST 5:08 PM CST
Civil Twilight 6:56 AM CST 5:41 PM CST
Nautical Twilight 6:19 AM CST 6:18 PM CST
Astronomical Twilight 5:42 AM CST 6:55 PM CST
Moon 11:55 PM CST (11/6) 1:18 PM CST (11/6)
Length of Visible Light 10h 45m
Length of Day
9h 39m
Waning Gibbous, 53% of the Moon is Illuminated
Nov 6
Waning Gibbous
Nov 6
Last Quarter
Nov 13
New
Nov 20
First Quarter
Nov 28
Full

Hourly Weather History & Observations

Time (CST) Temp. Windchill Dew Point Humidity Pressure Visibility Wind Dir Wind Speed Gust Speed Precip Events Conditions
12:15 AM 37.4 °F 26.4 °F 30.2 °F 75% 29.74 in 10.0 mi WNW 23.0 mph - N/A   Clear
12:35 AM 37.4 °F 26.6 °F 30.2 °F 75% 29.73 in 10.0 mi WNW 21.9 mph 27.6 mph N/A   Clear
12:55 AM 37.4 °F 26.6 °F 30.2 °F 75% 29.74 in 10.0 mi WNW 21.9 mph 26.5 mph N/A   Clear
1:15 AM 35.6 °F 24.5 °F 30.2 °F 81% 29.75 in 10.0 mi WNW 20.7 mph 26.5 mph N/A   Clear
1:35 AM 37.4 °F 26.9 °F 30.2 °F 75% 29.74 in 10.0 mi WNW 20.7 mph 27.6 mph N/A   Clear
1:55 AM 35.6 °F 24.8 °F 30.2 °F 81% 29.75 in 10.0 mi WNW 19.6 mph 25.3 mph N/A   Clear
2:15 AM 35.6 °F 24.8 °F 30.2 °F 81% 29.77 in 10.0 mi WNW 19.6 mph 25.3 mph N/A   Clear
2:35 AM 35.6 °F 24.5 °F 28.4 °F 75% 29.77 in 10.0 mi WNW 20.7 mph 26.5 mph N/A   Clear
2:55 AM 35.6 °F 24.2 °F 28.4 °F 75% 29.76 in 10.0 mi WNW 21.9 mph - N/A   Scattered Clouds
3:15 AM 35.6 °F 23.4 °F 28.4 °F 75% 29.77 in 10.0 mi WNW 25.3 mph 29.9 mph N/A   Mostly Cloudy
3:35 AM 35.6 °F 24.5 °F 28.4 °F 75% 29.77 in 10.0 mi WNW 20.7 mph 28.8 mph N/A   Mostly Cloudy
3:55 AM 37.4 °F 26.6 °F 28.4 °F 70% 29.77 in 10.0 mi WNW 21.9 mph 26.5 mph N/A   Overcast
4:15 AM 37.4 °F 26.1 °F 28.4 °F 70% 29.76 in 10.0 mi WNW 24.2 mph 29.9 mph N/A   Overcast
4:35 AM 37.4 °F 26.4 °F 28.4 °F 70% 29.77 in 10.0 mi WNW 23.0 mph 29.9 mph N/A   Overcast
4:55 AM 37.4 °F 26.4 °F 28.4 °F 70% 29.77 in 10.0 mi WNW 23.0 mph 28.8 mph N/A   Overcast
5:15 AM 37.4 °F 26.6 °F 28.4 °F 70% 29.78 in 10.0 mi WNW 21.9 mph 27.6 mph N/A   Overcast
5:35 AM 37.4 °F 26.4 °F 28.4 °F 70% 29.79 in 10.0 mi WNW 23.0 mph 27.6 mph N/A   Overcast
5:55 AM 35.6 °F 24.5 °F 28.4 °F 75% 29.80 in 10.0 mi WNW 20.7 mph 29.9 mph N/A   Overcast
6:15 AM 35.6 °F 23.7 °F 28.4 °F 75% 29.80 in 10.0 mi WNW 24.2 mph 28.8 mph N/A   Overcast
6:35 AM 35.6 °F 24.2 °F 28.4 °F 75% 29.81 in 10.0 mi WNW 21.9 mph 27.6 mph N/A   Overcast
6:55 AM 35.6 °F 24.5 °F 28.4 °F 75% 29.82 in 10.0 mi WNW 20.7 mph 28.8 mph N/A   Overcast
7:15 AM 35.6 °F 24.0 °F 28.4 °F 75% 29.83 in 10.0 mi NW 23.0 mph 29.9 mph N/A   Overcast
7:35 AM 35.6 °F 23.7 °F 28.4 °F 75% 29.84 in 10.0 mi WNW 24.2 mph 32.2 mph N/A   Overcast
7:55 AM 35.6 °F 24.2 °F 28.4 °F 75% 29.85 in 10.0 mi WNW 21.9 mph 26.5 mph N/A   Overcast
8:15 AM 35.6 °F 24.2 °F 28.4 °F 75% 29.86 in 10.0 mi WNW 21.9 mph 29.9 mph N/A   Overcast
8:35 AM 35.6 °F 24.2 °F 28.4 °F 75% 29.87 in 10.0 mi WNW 21.9 mph - N/A   Overcast
8:55 AM 35.6 °F 23.7 °F 28.4 °F 75% 29.88 in 10.0 mi WNW 24.2 mph 27.6 mph N/A   Overcast
9:15 AM 35.6 °F 24.8 °F 28.4 °F 75% 29.89 in 10.0 mi NW 19.6 mph 27.6 mph N/A   Overcast
9:35 AM 35.6 °F 24.5 °F 28.4 °F 75% 29.89 in 10.0 mi NW 20.7 mph 26.5 mph N/A   Overcast
9:55 AM 35.6 °F 24.5 °F 28.4 °F 75% 29.90 in 10.0 mi WNW 20.7 mph - N/A   Overcast
10:15 AM 37.4 °F 27.5 °F 28.4 °F 70% 29.90 in 10.0 mi WNW 18.4 mph 25.3 mph N/A   Overcast
10:35 AM 37.4 °F 26.9 °F 28.4 °F 70% 29.90 in 10.0 mi WNW 20.7 mph - N/A   Overcast
10:55 AM 37.4 °F 27.2 °F 30.2 °F 75% 29.91 in 10.0 mi NW 19.6 mph - N/A   Mostly Cloudy
11:15 AM 39.2 °F 29.3 °F 30.2 °F 70% 29.91 in 10.0 mi NW 20.7 mph 26.5 mph N/A   Partly Cloudy
11:35 AM 39.2 °F 29.6 °F 30.2 °F 70% 29.93 in 10.0 mi NW 19.6 mph 24.2 mph N/A   Partly Cloudy
11:55 AM 39.2 °F 29.6 °F 30.2 °F 70% 29.92 in 10.0 mi NW 19.6 mph 25.3 mph N/A   Mostly Cloudy
12:15 PM 41.0 °F 30.7 °F 30.2 °F 65% 29.92 in 10.0 mi WNW 25.3 mph 28.8 mph N/A   Mostly Cloudy
12:35 PM 42.8 °F 33.1 °F 32.0 °F 66% 29.93 in 10.0 mi NW 25.3 mph 28.8 mph N/A   Overcast
12:55 PM 42.8 °F 33.5 °F 32.0 °F 66% 29.93 in 10.0 mi WNW 23.0 mph 28.8 mph N/A   Mostly Cloudy
1:15 PM 42.8 °F 34.0 °F 32.0 °F 66% 29.93 in 10.0 mi WNW 20.7 mph - N/A   Mostly Cloudy
1:35 PM 42.8 °F 33.8 °F 32.0 °F 66% 29.94 in 10.0 mi NW 21.9 mph 29.9 mph N/A   Partly Cloudy
1:55 PM 42.8 °F 34.0 °F 32.0 °F 66% 29.95 in 10.0 mi NW 20.7 mph - N/A   Partly Cloudy
2:15 PM 42.8 °F 34.3 °F 32.0 °F 66% 29.95 in 10.0 mi NW 19.6 mph 25.3 mph N/A   Mostly Cloudy
2:35 PM 42.8 °F 34.0 °F 32.0 °F 66% 29.96 in 10.0 mi NW 20.7 mph 26.5 mph N/A   Partly Cloudy
2:55 PM 42.8 °F 35.1 °F 33.8 °F 70% 29.96 in 10.0 mi NW 16.1 mph 24.2 mph N/A   Partly Cloudy
3:15 PM 42.8 °F 34.5 °F 32.0 °F 66% 29.97 in 10.0 mi NW 18.4 mph 23.0 mph N/A   Partly Cloudy
3:35 PM 42.8 °F 34.8 °F 32.0 °F 66% 29.96 in 10.0 mi NW 17.3 mph - N/A   Clear
3:55 PM 42.8 °F 34.8 °F 32.0 °F 66% 29.96 in 10.0 mi NW 17.3 mph - N/A   Clear
4:15 PM 42.8 °F 34.5 °F 32.0 °F 66% 29.97 in 10.0 mi NW 18.4 mph - N/A   Clear
4:35 PM 41.0 °F 33.5 °F 32.0 °F 70% 29.98 in 10.0 mi WNW 13.8 mph - N/A   Clear
4:55 PM 41.0 °F 33.5 °F 30.2 °F 65% 29.98 in 10.0 mi WNW 13.8 mph - N/A   Clear
5:15 PM 39.2 °F 30.8 °F 30.2 °F 70% 29.99 in 10.0 mi WNW 15.0 mph - N/A   Clear
5:35 PM 39.2 °F 31.2 °F 30.2 °F 70% 29.99 in 10.0 mi WNW 13.8 mph - N/A   Clear
5:55 PM 37.4 °F 28.9 °F 30.2 °F 75% 30.00 in 10.0 mi WNW 13.8 mph - N/A   Clear
6:15 PM 37.4 °F 29.3 °F 30.2 °F 75% 30.01 in 10.0 mi WNW 12.7 mph - N/A   Partly Cloudy
6:35 PM 37.4 °F 28.5 °F 30.2 °F 75% 30.01 in 10.0 mi WNW 15.0 mph - N/A   Partly Cloudy
6:55 PM 37.4 °F 28.9 °F 30.2 °F 75% 30.01 in 10.0 mi NW 13.8 mph - N/A   Mostly Cloudy
7:15 PM 37.4 °F 29.3 °F 30.2 °F 75% 30.01 in 10.0 mi WNW 12.7 mph - N/A   Overcast
7:35 PM 39.2 °F 31.2 °F 30.2 °F 70% 30.02 in 10.0 mi NW 13.8 mph - N/A   Overcast
7:55 PM 39.2 °F 32.0 °F 30.2 °F 70% 30.02 in 10.0 mi NW 11.5 mph - N/A   Overcast
8:15 PM 37.4 °F 30.8 °F 30.2 °F 75% 30.03 in 10.0 mi NW 9.2 mph - N/A   Overcast
8:35 PM 37.4 °F 30.3 °F 30.2 °F 75% 30.03 in 10.0 mi WNW 10.4 mph - N/A   Overcast
8:55 PM 39.2 °F 31.6 °F 28.4 °F 65% 30.02 in 10.0 mi NNW 12.7 mph - N/A   Overcast
9:15 PM 39.2 °F 33.6 °F 30.2 °F 70% 30.02 in 10.0 mi NW 8.1 mph - N/A   Overcast
9:35 PM 37.4 °F 31.4 °F 30.2 °F 75% 30.03 in 10.0 mi WNW 8.1 mph - N/A   Overcast
9:55 PM 37.4 °F 32.1 °F 30.2 °F 75% 30.03 in 10.0 mi WNW 6.9 mph - N/A   Overcast
10:15 PM 35.6 °F 30.7 °F 28.4 °F 75% 30.03 in 10.0 mi NW 5.8 mph - N/A   Mostly Cloudy
10:35 PM 33.8 °F 27.0 °F 28.4 °F 81% 30.03 in 10.0 mi WNW 8.1 mph - N/A   Scattered Clouds
10:55 PM 33.8 °F 27.7 °F 28.4 °F 81% 30.03 in 10.0 mi NW 6.9 mph - N/A   Clear
11:15 PM 33.8 °F 27.7 °F 28.4 °F 81% 30.03 in 10.0 mi NW 6.9 mph - N/A   Clear
11:35 PM 32.0 °F 27.5 °F 26.6 °F 80% 30.03 in 10.0 mi NW 4.6 mph - N/A   Clear
11:55 PM 32.0 °F 26.4 °F 26.6 °F 80% 30.04 in 10.0 mi NW 5.8 mph - N/A   Clear